Weather Roundup
Issued by NWS Chicago, IL

Home | Current Version | Previous Version | Graphics & Text | Print | Product List | Glossary On
Versions: 1 2 3 4 5 6 7 8 9 10 11 12 13 14 15 16 17 18 19 20 21 22 23 24 25 26 27 28 29 30 31 32 33 34 35 36 37 38 39 40 41 42 43 44 45 46 47 48 49 50
000
NZUS59 KLOT 300808
HRRLOT

CHICAGO AREA WEATHER ROUNDUP
NATIONAL WEATHER SERVICE CHICAGO/ROMEOVILLE IL
300 AM CDT SUN AUG 30 2015

NOTE: "FAIR" INDICATES FEW OR NO CLOUDS BELOW 12,000 FEET WITH NO
SIGNIFICANT WEATHER AND/OR OBSTRUCTIONS TO VISIBILITY.

* THESE STATIONS ARE NOT UNDER NWS QUALITY CONTROL. THEY ALSO MAY NOT
  REPORT WEATHER SUCH AS PRECIPITATION OR FOG.

ILZ005-006-012>014-019>023-300900-
NORTHEAST ILLINOIS

CITY           SKY/WX    TMP DP  RH WIND       PRES   REMARKS
OHARE          CLOUDY    65  64  97 N5        30.02F FOG
MIDWAY         CLOUDY    67  64  90 N3        30.02S FOG
AURORA         CLOUDY    67  65  93 N3        30.04S FOG
LANSING*       CLOUDY    65  64  97 N5        30.02S FOG
JOLIET*        FOG       67  67  98 N6        30.02S VSB 1
WAUKEGAN       CLOUDY    63  63 100 CALM      30.02F FOG
DUPAGE AIRPORT CLOUDY    66  63  90 NW5       30.03S FOG
WHEELING       CLOUDY    64  63  96 CALM      30.03F FOG
KANKAKEE*      CLOUDY    67  66  97 CALM      30.02S FOG
MORRIS*        FOG       65  65  97 CALM      30.01S VSB 1/4
LEWIS AIRPORT* CLOUDY    65  65  99 N5        30.03R FOG
NORTHERLY IS     N/A     62  60  93 NE1         N/A
$$

WIZ051-052-058>065-066-070>072-300900-
SOUTHEAST WISCONSIN

CITY           SKY/WX    TMP DP  RH WIND       PRES   REMARKS
MILWAUKEE      FOG       63  61  93 NE3       30.03F VSB 1
KENOSHA*       CLOUDY    63  63 100 NW5       30.03F FOG
RACINE*        FOG       63  61  93 NW3       30.05S VSB 1/4
BURLINGTON     CLOUDY    61  61  99 CALM      30.04S FOG
WAUKESHA       CLOUDY    59  59 100 CALM      30.05S FOG
WEST BEND      CLOUDY    61  59  94 CALM      30.04S FOG
$$

INZ001>003-010>013-019-020-300900-
NORTHWEST INDIANA

CITY           SKY/WX    TMP DP  RH WIND       PRES   REMARKS
GARY*          CLOUDY    66  64  91 N6        30.03S FOG
MICHIGAN CITY* NOT AVBL
RENSSELAER*    NOT AVBL
VALPARAISO     FOG       69  67  93 CALM      30.02F VSB 1
$$

LMZ740>746-300900-
SOUTHERN LAKE MICHIGAN

STATION/POSITION TIME  SKY/WX   TEMP WIND        PRES    VSBY
                                AIR  DIR/SP/G
                 (UTC)          (F)  (DEG/KT/KT) (MB)    (MI)
HARRISON CRIB    0700            60  320/ 10/ 13   N/A
BURNHAM HARBOR   0800            62   CALM  /  6   N/A
CALUMET HARBOR   NOT AVBL
BURNS HARBOR     0700            67  360/  5/  7 1016.9F
MICHIGAN CITY    0700            67  300/  9/ 10   N/A
$$

ABBREVIATIONS USED IN REMARKS
   TC - TEMPERATURE IN CELSIUS
  WCI - WIND CHILL INDEX
   HX - HEAT INDEX
  VSB - VISIBILITY
$$



USA.gov is the U.S. government's official web portal to all federal, state and local government web resources and services.